STARLINK-1595, 46159

Orbit data source: Space-Track

STARLINK-1595, 46159 is a payload satellite owned by SpaceX/Seattle (US) in LEO that was launched on Tue, 18 Aug 2020 UTC via an FALCON 9 launch vehicle from the Air Force Eastern Test Range (AFETR). Payload-class satellites include a variety of spacecraft equipped with specific instruments for various scientific and technological missions. These include communications satellites like Starlink; space stations such as the ISS; scientific satellites like the Hubble; Earth observation satellites from companies like Planet Labs, Umbra, and HawkEye 360; GPS; miniature CubeSats for education and research; and military/defense satellites.

Loading next visibility...
Identifier
46159, 2020-057AU
Orbit
LEO
Country
Flag of USUS
Related business
Manufacturer
SpaceX/Seattle
Mission
Operational Commercial Communications
Bus & Motor
STARLINK, Unknown motor
Mass
260 kg wet, ~248 kg dry
Launch date (UTC)
2020-08-18 (5 years ago)
Launch vehicle
FALCON 9
Launch site
Air Force Eastern Test Range (AFETR)
Object type
Payload
Rocket body
Debris
Shape & HBR
Box + 1 Pan, 10.1 m
Radar Cross Section
13.562 m², Large (>1 m²)

Expand to show TLE details & history
Last TLE update: 16 hours ago

TLE from 16 hours ago
0 STARLINK-1595
1 46159U 20057AU  25287.20267902  .00004564  00000-0  32491-3 0  9992
2 46159  53.0534 254.2256 0001536  88.4951 271.6214 15.06419031285247
Epoch: 2025-10-14T04:51Z
TLE epoch observation values (Epoch: 2025-10-14T04:51:51.467Z)
Latitude
-0.00001°
Longitude
158.26666°
Altitude
548.002 km
Speed
7.589 km/s
True Right ascension
16h 56m 54s
True Declination
0° 00' 00"
Sunlit
Object was in daylight at epoch
Visualization orbit readout
Latitude
Unknown
Longitude
Unknown
Altitude
Unknown
Speed
Unknown
Apparent Right ascension
Unknown
Apparent Declination
Unknown
Sunlit
N/A
Visualization observer readout
Local Sidereal Time
15:25:40
Azimuth
Unknown
Elevation
Unknown
Doppler factor
Unknown
Orbital elements
Apogee altitude
548.488 km
Perigee altitude
546.36 km
Semi-major axis
6,925.561 km
Eccentricity
0.00015
Inclination
53.0534°
RAAN
254.2256°
Arg. of periapsis
88.4951°
True anomaly
271.60381°
Mean anomaly
271.6214°
Eccentric anomaly
271.6126°
Mean motion
3.76583 °/min
Orbital period
95.6 mins
BSTAR
0.00032491
Loading maneuver chart data...
Computing Atmospheric mass density...
Loading historical data...
Loading historical data...
Loading historical data...
Loading historical data...
Loading historical data...
Loading historical data...
Loading historical data...

Documentation

Showing up to 5 results
|